CW2098 Weather Reports


Display with metric or nautical units.
time (UTC)temp
F
wind
direction
speed
MPH
gust
MPH
rain 1hr
in
rain 24hr
in
rain mn
in
humidity
%
barometer
mb
20260510222221 76 128 2.0 4.0 0.00 0.02 0.02 94 997.1
20260510221222 76 51 2.0 5.0 0.00 0.02 0.02 93 997.1
20260510220222 76 62 2.0 7.0 0.00 0.02 0.02 93 996.7
20260510215221 76 260 2.0 6.0 0.00 0.02 0.02 93 997.2
20260510214222 76 157 2.0 6.0 0.00 0.02 0.02 92 997.5
20260510213222 76 73 2.0 4.0 0.01 0.02 0.02 91 997.2
20260510212222 76 47 2.0 5.0 0.01 0.02 0.02 92 996.1
20260510211221 76 231 4.0 8.0 0.01 0.02 0.01 92 996.7
20260510210221 76 69 4.0 9.0 0.01 0.02 0.01 92 998.6
20260510205221 76 66 4.0 7.0 0.01 0.02 0.01 92 996.1
20260510204220 76 202 4.0 7.0 0.01 0.02 0.01 91 995.9
20260510203221 76 107 4.0 8.0 0.00 0.01 0.01 89 994.6
20260510202220 77 24 5.0 8.0 0.00 0.01 0.00 88 994.8
20260510201221 77 46 4.0 8.0 0.00 0.01 0.00 87 998.4
20260510195656 77 53 5.0 9.0 0.00 0.01 0.00 87 998.8
20260510194217 78 35 6.0 9.0 0.00 0.01 0.00 86 999.4
20260510192217 78 31 5.0 8.0 0.00 0.11 0.00 86 999.3
20260510191218 79 57 5.0 9.0 0.00 0.14 0.00 85 999.3
20260510190218 80 41 4.0 9.0 0.00 0.15 0.00 84 1000.6
20260510185658 80 23 4.0 7.0 0.00 0.15 0.00 84 1002.0
20260510184218 80 4 4.0 9.0 0.00 0.15 0.00 84 1005.0
20260510183217 80 22 4.0 8.0 0.00 0.15 0.00 84 1002.6
20260510182215 80 33 3.0 7.0 0.00 0.15 0.00 83 1004.0
20260510181216 79 12 3.0 6.0 0.00 0.15 0.00 85 1004.7
20260510180215 79 68 3.0 6.0 0.00 0.15 0.00 87 1004.1
20260510175215 79 44 3.0 5.0 0.00 0.15 0.00 88 1003.3
20260510174700 78 24 3.0 5.0 0.00 0.15 0.00 89 1003.8
20260510173215 78 30 3.0 5.0 0.00 0.15 0.00 90 1008.9
20260510172703 78 24 3.0 6.0 0.00 0.15 0.00 91 1008.9
20260510171213 77 39 4.0 7.0 0.00 0.15 0.00 92 1002.5
20260510170213 76 26 4.0 7.0 0.00 0.15 0.00 94 1005.3
20260510165213 76 17 4.0 8.0 0.00 0.15 0.00 94 1007.3
20260510164213 75 50 4.0 6.0 0.00 0.15 0.00 96 1002.9
20260510163214 75 50 3.0 5.0 0.00 0.15 0.00 97 999.5
20260510162214 75 12 3.0 5.0 0.00 0.15 0.00 97 1001.9
20260510161212 75 45 2.0 5.0 0.00 0.15 0.00 98 1002.2
20260510160650 74 65 3.0 6.0 0.00 0.15 0.00 98 1001.8
20260510155155 74 31 3.0 5.0 0.00 0.15 0.00 98 1000.3
20260510154156 74 358 3.0 5.0 0.00 0.15 0.00 98 1000.6
20260510153638 74 50 3.0 4.0 0.00 0.15 0.00 99 1000.3
20260510152154 74 27 2.0 4.0 0.00 0.15 0.00 99 999.3
20260510151155 74 64 2.0 4.0 0.00 0.15 0.00 99 999.9
20260510150155 74 28 2.0 4.0 0.00 0.15 0.00 99 999.7
20260510145141 74 39 2.0 4.0 0.00 0.15 0.00 99 1000.0
20260510144141 74 110 2.0 4.0 0.00 0.15 0.00 100 1000.1
20260510143617 73 26 2.0 3.0 0.00 0.15 0.00 100 1000.7
20260510142632 73 41 2.0 3.0 0.00 0.15 0.00 100 1000.2
20260510141142 73 40 2.0 3.0 0.00 0.15 0.00 100 1000.9
20260510140142 73 1 2.0 3.0 0.00 0.15 0.00 100 1000.5
20260510135143 73 42 1.0 3.0 0.00 0.15 0.00 100 999.1
20260510134621 73 343 2.0 3.0 0.00 0.15 0.00 100 998.5
20260510133142 73 352 1.0 2.0 0.00 0.15 0.00 100 998.9
20260510132605 73 8 2.0 3.0 0.00 0.15 0.00 100 998.3
20260510131129 73 345 1.0 2.0 0.00 0.15 0.00 100 997.3
20260510130129 73 353 2.0 3.0 0.00 0.15 0.00 100 996.9
20260510125129 72 10 2.0 4.0 0.00 0.15 0.00 100 996.9
20260510124613 72 359 1.0 3.0 0.00 0.15 0.00 100 996.7
20260510123129 72 345 2.0 4.0 0.00 0.15 0.00 100 996.3
20260510122113 72 334 1.0 3.0 0.00 0.15 0.00 100 996.2
20260510121552 72 1 2.0 4.0 0.00 0.15 0.00 100 996.3
20260510120114 72 354 2.0 3.0 0.00 0.15 0.00 100 995.8
20260510115554 72 0 1.0 3.0 0.00 0.15 0.00 100 995.5
20260510114113 72 355 1.0 2.0 0.00 0.15 0.00 100 995.3
20260510113113 72 303 0.0 2.0 0.00 0.15 0.00 100 995.3
20260510112558 72 335 1.0 2.0 0.00 0.15 0.00 100 994.9
20260510111113 72 313 1.0 3.0 0.00 0.15 0.00 100 994.5
20260510110111 71 358 0.0 1.0 0.00 0.15 0.00 100 993.2
20260510105543 71 0 0.0 1.0 0.00 0.15 0.00 100 993.3
20260510104058 71 0 0.0 0.0 0.00 0.15 0.00 100 993.4
20260510103057 71 0 0.0 1.0 0.00 0.15 0.00 100 993.5
20260510102058 71 0 0.0 1.0 0.00 0.15 0.00 100 993.0
20260510101058 71 328 0.0 0.0 0.00 0.15 0.00 100 992.6
20260510100110 71 0 0.0 1.0 0.00 0.15 0.00 100 993.0
20260510095058 72 88 0.0 2.0 0.00 0.15 0.00 100 992.7
20260510094058 71 0 0.0 2.0 0.00 0.15 0.00 100 992.8
20260510093044 71 0 0.0 1.0 0.00 0.15 0.00 100 993.0
20260510092045 71 0 0.0 0.0 0.00 0.15 0.00 100 992.9
20260510091044 71 0 0.0 1.0 0.00 0.15 0.00 100 992.8
20260510090044 71 0 0.0 1.0 0.00 0.15 0.00 99 992.0
20260510085044 71 0 0.0 1.0 0.00 0.15 0.00 99 991.5
20260510084045 71 0 0.0 1.0 0.00 0.15 0.00 99 991.9
20260510083045 72 0 0.0 2.0 0.00 0.15 0.00 99 991.8
20260510082044 72 65 1.0 2.0 0.00 0.15 0.00 99 992.2
20260510081043 72 0 0.0 2.0 0.00 0.15 0.00 99 992.8
20260510080044 71 176 0.0 1.0 0.00 0.15 0.00 99 992.8
20260510075044 71 274 0.0 3.0 0.00 0.15 0.00 99 992.5
20260510074043 71 54 0.0 1.0 0.00 0.15 0.00 99 992.2
20260510073044 71 0 0.0 1.0 0.00 0.15 0.00 99 992.3
20260510072043 71 39 0.0 1.0 0.00 0.15 0.00 99 991.9
20260510071044 71 0 0.0 1.0 0.00 0.15 0.00 99 990.7
20260510070040 71 0 1.0 3.0 0.00 0.15 0.00 99 991.4
20260510065041 71 0 0.0 1.0 0.00 0.15 0.00 99 990.9
20260510064040 71 0 0.0 1.0 0.00 0.15 0.00 99 990.7
20260510063041 71 0 0.0 1.0 0.00 0.15 0.00 99 991.1
20260510062525 71 0 0.0 2.0 0.00 0.15 0.00 99 991.2
20260510061532 71 0 0.0 2.0 0.00 0.15 0.00 99 991.7
20260510060520 71 0 1.0 3.0 0.00 0.15 0.00 99 992.0
20260510055039 71 110 1.0 4.0 0.00 0.15 0.00 99 992.3
20260510054038 71 170 1.0 4.0 0.00 0.15 0.00 99 992.5
20260510053038 71 0 0.0 2.0 0.00 0.15 0.00 99 992.8
20260510052525 71 200 1.0 2.0 0.00 0.15 0.00 99 993.2
20260510051052 71 87 1.0 3.0 0.00 0.15 0.00 99 993.4
20260510050038 71 183 0.0 3.0 0.00 0.15 0.00 98 993.0
20260510045039 71 0 0.0 1.0 0.00 0.15 0.00 98 992.8
20260510043036 71 0 0.0 1.0 0.00 0.15 0.00 98 992.4
20260510042037 71 0 0.0 2.0 0.00 0.15 0.00 98 992.1
20260510041037 71 0 0.0 1.0 0.00 0.18 0.00 98 992.2
20260510040036 71 11 0.0 1.0 0.00 0.19 0.00 98 992.2
20260510035037 71 0 0.0 2.0 0.00 0.19 0.19 98 992.6
20260510034037 71 0 0.0 2.0 0.00 0.20 0.19 98 992.8
20260510033515 71 143 0.0 2.0 0.00 0.24 0.19 98 992.9
20260510032206 71 179 1.0 2.0 0.00 0.42 0.19 98 993.1
20260510031021 72 61 0.0 2.0 0.00 0.45 0.19 98 992.8
20260510030020 72 159 1.0 3.0 0.00 0.50 0.19 98 993.0
20260510025021 72 173 2.0 3.0 0.00 0.52 0.19 98 993.1
20260510024020 72 0 0.0 1.0 0.00 0.57 0.19 98 992.5
20260510023020 72 354 1.0 2.0 0.00 0.57 0.19 97 992.1
20260510022021 72 0 0.0 2.0 0.00 0.57 0.19 97 992.3
20260510021021 72 0 0.0 1.0 0.00 0.57 0.19 97 992.3
20260510020018 72 63 1.0 2.0 0.00 0.57 0.19 97 992.0
20260510015017 72 19 1.0 3.0 0.00 0.57 0.19 97 991.9
20260510014016 72 63 1.0 2.0 0.00 0.57 0.19 97 991.9
20260510012016 72 0 0.0 1.0 0.00 0.57 0.19 97 991.4
20260510011453 72 0 0.0 2.0 0.00 0.57 0.19 97 991.3
20260510010016 72 134 1.0 2.0 0.00 0.57 0.19 96 991.6
20260510005016 72 0 0.0 2.0 0.00 0.57 0.19 96 991.6
20260510004016 72 0 0.0 2.0 0.00 0.57 0.19 96 991.6
20260510003017 72 0 0.0 2.0 0.00 0.58 0.19 96 991.6
20260510002014 72 329 0.0 1.0 0.00 0.68 0.19 96 991.7
20260510001015 72 252 0.0 1.0 0.00 0.68 0.19 96 991.8
20260510000455 72 0 0.0 1.0 0.00 0.68 0.19 96 991.7
20260509235014 72 0 0.0 2.0 0.00 0.68 0.19 95 991.5
20260509234015 72 0 1.0 3.0 0.00 0.68 0.19 95 991.7
20260509233012 72 36 2.0 3.0 0.00 0.68 0.19 95 991.6
20260509232011 72 26 2.0 4.0 0.00 0.68 0.19 95 991.6
20260509231458 72 10 2.0 4.0 0.00 0.68 0.19 95 991.6
20260509230011 73 56 2.0 3.0 0.00 0.68 0.19 95 991.7
20260509225012 72 38 2.0 4.0 0.00 0.68 0.19 95 991.8
20260509224012 72 56 3.0 6.0 0.00 0.68 0.19 95 991.6
20260509223012 72 34 2.0 5.0 0.00 0.68 0.19 95 992.1